Location: Góry Miechowskie
(50.3599°N, 20.1803°E)
Time: 03:51:27
(UTC+00:00)

SR - Pass Details

Date: 22 September 2024
Orbit: 578 x 855 km, 66.7° (Epoch: 04 October)

Event Time Altitude Azimuth Distance (km) Brightness Sun altitude
Rises 19:12:38 0° 317° (NW) 2,952 ? -24.4°
Reaches altitude 10° 19:14:58 10° 309° (NW) 2,079 ? -24.7°
Maximum altitude 19:19:16 36° 243° (WSW) 1,092 ? -25.3°
Enters shadow 19:20:30 31° 212° (SSW) 1,219 ? -25.5°
